Weather History for Fort Sill, OK

Change the Weather History Date:

Wednesday, March 6, 2013

  Actual Average Record
Temperature  
Mean Temperature 40 °F -  
Max Temperature 52 °F 61 °F 92 °F (1991)
Min Temperature 29 °F 36 °F 18 °F (1960)
Degree Days  
Heating Degree Days 24    
Moisture  
Dew Point 22 °F    
Average Humidity 48    
Maximum Humidity 68    
Minimum Humidity 31    
Precipitation  
Precipitation 0.00 in - - ()
Sea Level Pressure  
Sea Level Pressure 30.32 in    
Wind  
Wind Speed 6 mph (ESE)    
Max Wind Speed 12 mph    
Max Gust Speed -    
Visibility 10 miles    
Events      
Averages and records for this station are not official NWS values.
T = Trace of Precipitation, MM = Missing Value Source: NWS Daily Summary

Daily Weather History Graph

Daily Weather History Graph

Search for Another Location

Airport:

Trip Planner

Search our weather history database for the weather conditions in past years. The results will help you decide how hot, cold, wet, or windy it might be!

Date:

Astronomy

Mar. 06, 2013 Rise Set
Actual Time 6:55 AM CST 6:34 PM CST
Civil Twilight 6:30 AM CST 6:59 PM CST
Nautical Twilight 6:01 AM CST 7:28 PM CST
Astronomical Twilight 5:32 AM CST 7:57 PM CST
Moon 2:56 AM CST (3/6) 1:27 PM CST (3/6)
Length of Visible Light 12h 28m
Length of Day
11h 38m
Waning Crescent, 29% of the Moon is Illuminated
Mar 6
Waning Crescent
Mar 11
New
Mar 19
First Quarter
Mar 27
Full
Apr 2
Last Quarter

Hourly Weather History & Observations

Time (CST) Temp. Windchill Dew Point Humidity Pressure Visibility Wind Dir Wind Speed Gust Speed Precip Events Conditions
12:58 AM 35.8 °F 31.9 °F 19.6 °F 52% 30.40 in 10.0 mi NNE 4.6 mph - N/A   Clear
1:58 AM 31.1 °F 27.7 °F 20.5 °F 65% 30.40 in 10.0 mi NNE 3.5 mph - N/A   Clear
2:58 AM 32.4 °F 29.1 °F 20.3 °F 61% 30.40 in 10.0 mi North 3.5 mph - N/A   Clear
3:58 AM 30.4 °F 23.6 °F 20.7 °F 67% 30.38 in 10.0 mi NNE 6.9 mph - N/A   Clear
4:58 AM 30.6 °F 23.1 °F 20.8 °F 67% 30.40 in 10.0 mi North 8.1 mph - N/A   Clear
5:58 AM 30.0 °F - 20.7 °F 68% 30.40 in 10.0 mi Calm Calm - N/A   Clear
6:58 AM 29.5 °F 25.9 °F 20.1 °F 68% 30.42 in 10.0 mi North 3.5 mph - N/A   Clear
7:58 AM 33.4 °F 30.4 °F 22.5 °F 64% 30.45 in 10.0 mi Variable 3.5 mph - N/A   Clear
8:58 AM 36.5 °F 31.8 °F 22.3 °F 56% 30.45 in 10.0 mi East 5.8 mph - N/A   Clear
9:58 AM 39.9 °F 34.5 °F 20.7 °F 46% 30.45 in 10.0 mi ESE 8.1 mph - N/A   Clear
10:58 AM 42.1 °F 36.6 °F 22.5 °F 46% 30.43 in 10.0 mi ESE 9.2 mph - N/A   Clear
11:58 AM 46.0 °F 44.8 °F 22.8 °F 40% 30.40 in 10.0 mi Variable 3.5 mph - N/A   Clear
12:58 PM 47.8 °F - 23.2 °F 38% 30.38 in 10.0 mi South 5.8 mph - N/A   Clear
1:58 PM 50.7 °F - 24.4 °F 36% 30.32 in 10.0 mi SSE 11.5 mph - N/A   Mostly Cloudy
2:58 PM 52.0 °F - 23.4 °F 33% 30.28 in 10.0 mi SSE 8.1 mph - N/A   Mostly Cloudy
3:58 PM 52.7 °F - 25.3 °F 35% 30.25 in 10.0 mi SSE 9.2 mph - N/A   Overcast
4:58 PM 52.7 °F - 22.6 °F 31% 30.23 in 10.0 mi SSE 11.5 mph - N/A   Overcast
5:58 PM 52.3 °F - 22.6 °F 31% 30.22 in 10.0 mi SSE 10.4 mph - N/A   Partly Cloudy
6:58 PM 49.5 °F - 25.0 °F 38% 30.20 in 10.0 mi SE 6.9 mph - N/A   Overcast
7:58 PM 47.7 °F - 24.6 °F 41% 30.19 in 10.0 mi SE 5.8 mph - N/A   Mostly Cloudy
8:58 PM 49.3 °F - 22.3 °F 35% 30.18 in 10.0 mi SE 10.4 mph - N/A   Overcast
9:58 PM 46.4 °F 41.9 °F 23.5 °F 41% 30.16 in 10.0 mi SSE 9.2 mph - N/A   Scattered Clouds
10:58 PM 42.8 °F 38.0 °F 23.9 °F 47% 30.16 in 10.0 mi SSE 8.1 mph - N/A   Clear
11:58 PM 41.2 °F 36.0 °F 23.4 °F 49% 30.15 in 10.0 mi SSE 8.1 mph - N/A   Clear